GW2280 Weather Reports


Display with metric or nautical units.
time (UTC)temp
F
wind
direction
speed
MPH
gust
MPH
rain 1hr
in
rain 24hr
in
rain mn
in
humidity
%
barometer
mb
20260904182516 75 262 4.0 8.0 0.00 0.00 0.00 74 1011.2
20260904182024 74 296 1.0 7.0 0.00 0.00 0.00 75 1011.2
20260904181538 74 266 2.0 7.0 0.00 0.00 0.00 77 1011.3
20260904181020 74 251 0.0 3.0 0.00 0.00 0.00 78 1011.3
20260904180518 73 0 1.0 3.0 0.00 0.00 0.00 81 1011.3
20260904180037 73 0 0.0 5.0 0.00 0.00 0.00 82 1011.4
20260904175520 73 0 0.0 5.0 0.00 0.00 0.00 81 1011.5
20260904175020 73 0 0.0 4.0 0.00 0.00 0.00 78 1011.5
20260904174544 73 0 1.0 5.0 0.00 0.00 0.00 79 1011.4
20260904174021 73 0 0.0 7.0 0.00 0.00 0.00 80 1011.4
20260904173516 72 315 2.0 7.0 0.00 0.00 0.00 81 1011.5
20260904173039 72 0 1.0 5.0 0.00 0.00 0.00 84 1011.3
20260904172518 72 0 1.0 8.0 0.00 0.00 0.00 84 1011.4
20260904172019 72 286 3.0 8.0 0.00 0.00 0.00 84 1011.4
20260904171539 72 0 1.0 9.0 0.00 0.00 0.00 82 1011.6
20260904171020 72 0 2.0 13.0 0.00 0.00 0.00 81 1011.6
20260904170517 73 259 7.0 13.0 0.00 0.00 0.00 78 1011.6
20260904170040 74 272 3.0 12.0 0.00 0.00 0.00 77 1011.6
20260904165520 75 295 3.0 11.0 0.00 0.00 0.00 74 1011.6
20260904165021 75 311 5.0 13.0 0.00 0.00 0.00 70 1011.6
20260904164535 76 306 5.0 13.0 0.00 0.00 0.00 67 1011.6
20260904164019 77 339 4.0 11.0 0.00 0.00 0.00 66 1011.5
20260904163519 77 310 4.0 12.0 0.00 0.00 0.00 66 1011.4
20260904163036 77 301 5.0 14.0 0.00 0.00 0.00 66 1011.4
20260904162516 77 277 6.0 14.0 0.00 0.00 0.00 70 1011.5
20260904162018 76 351 6.0 10.0 0.00 0.00 0.00 67 1011.7
20260904161541 75 315 0.0 15.0 0.00 0.00 0.00 71 1011.7
20260904161020 75 352 5.0 15.0 0.00 0.00 0.00 67 1011.8
20260904160520 76 298 2.0 10.0 0.00 0.00 0.00 75 1011.7
20260904160040 75 342 3.0 9.0 0.00 0.00 0.00 72 1011.9
20260904155520 74 351 0.0 9.0 0.00 0.00 0.00 73 1011.9
20260904155018 75 305 1.0 8.0 0.00 0.00 0.00 74 1011.9
20260904154537 75 342 1.0 9.0 0.00 0.00 0.00 74 1011.9
20260904154024 76 360 4.0 9.0 0.00 0.00 0.00 69 1011.9
20260904153519 76 352 3.0 9.0 0.00 0.00 0.00 71 1011.9
20260904153036 76 324 0.0 8.0 0.00 0.00 0.00 77 1012.0
20260904152516 76 287 2.0 8.0 0.00 0.00 0.00 74 1012.0
20260904152020 76 0 1.0 8.0 0.00 0.00 0.00 75 1012.0
20260904151540 76 291 2.0 8.0 0.00 0.00 0.00 76 1012.0
20260904151023 76 0 0.0 6.0 0.00 0.00 0.00 80 1012.1
20260904150518 75 0 2.0 7.0 0.00 0.00 0.00 77 1012.1
20260904150058 75 234 2.0 7.0 0.00 0.00 0.00 81 1012.2
20260904145519 75 288 1.0 6.0 0.00 0.00 0.00 84 1012.3
20260904145022 74 336 2.0 5.0 0.00 0.00 0.00 80 1012.2
20260904144538 74 303 1.0 5.0 0.00 0.00 0.00 81 1012.2
20260904144018 74 323 2.0 5.0 0.00 0.00 0.00 81 1012.3
20260904143520 73 323 1.0 9.0 0.00 0.00 0.00 83 1012.2
20260904143035 73 334 3.0 9.0 0.00 0.00 0.00 86 1012.2
20260904142516 72 0 3.0 8.0 0.00 0.00 0.00 89 1012.2
20260904142018 71 344 1.0 8.0 0.00 0.00 0.00 96 1012.3
20260904141539 70 320 1.0 8.0 0.00 0.00 0.00 98 1012.3
20260904141019 70 34 3.0 9.0 0.00 0.00 0.00 99 1012.4
20260904140519 69 299 3.0 9.0 0.00 0.00 0.00 99 1012.4
20260904140040 69 277 2.0 7.0 0.00 0.00 0.00 99 1012.4
20260904135519 69 261 2.0 7.0 0.00 0.01 0.00 99 1012.5
20260904135018 69 286 1.0 6.0 0.00 0.01 0.00 99 1012.4
20260904134547 68 306 1.0 6.0 0.00 0.01 0.00 100 1012.4
20260904134018 68 282 1.0 7.0 0.00 0.01 0.00 99 1012.4
20260904133518 67 0 4.0 7.0 0.00 0.01 0.00 99 1012.5
20260904133033 67 306 1.0 6.0 0.00 0.01 0.00 99 1012.5
20260904132520 66 0 2.0 6.0 0.00 0.01 0.00 99 1012.5
20260904132019 66 295 2.0 6.0 0.00 0.01 0.00 99 1012.5
20260904131534 66 0 2.0 5.0 0.00 0.01 0.00 99 1012.4
20260904131017 66 298 1.0 4.0 0.00 0.01 0.00 99 1012.4
20260904130524 65 298 1.0 5.0 0.00 0.01 0.00 99 1012.4
20260904130037 65 360 1.0 5.0 0.00 0.01 0.00 99 1012.4
20260904125520 65 311 1.0 5.0 0.00 0.02 0.00 99 1012.4
20260904125022 64 310 2.0 5.0 0.00 0.02 0.00 99 1012.4
20260904124537 64 306 1.0 4.0 0.00 0.02 0.00 99 1012.5
20260904124023 64 306 2.0 5.0 0.00 0.02 0.00 99 1012.5
20260904123520 64 306 1.0 6.0 0.00 0.02 0.00 99 1012.5
20260904123035 64 318 2.0 7.0 0.00 0.02 0.00 99 1012.4
20260904122519 64 306 3.0 7.0 0.00 0.02 0.00 99 1012.5
20260904122018 64 309 0.0 8.0 0.00 0.02 0.00 99 1012.5
20260904121535 64 323 2.0 8.0 0.00 0.02 0.00 99 1012.6
20260904121017 64 0 2.0 8.0 0.00 0.02 0.00 99 1012.7
20260904120518 63 0 2.0 8.0 0.00 0.02 0.00 99 1012.6
20260904120038 63 284 3.0 8.0 0.00 0.02 0.00 99 1012.5
20260904115520 64 0 1.0 8.0 0.00 0.05 0.00 99 1012.6
20260904115017 63 292 3.0 8.0 0.00 0.05 0.00 99 1012.5
20260904114538 64 338 2.0 6.0 0.00 0.05 0.00 99 1012.5
20260904114019 63 0 3.0 6.0 0.00 0.05 0.00 99 1012.4
20260904113520 63 360 2.0 5.0 0.00 0.05 0.00 99 1012.4
20260904113038 63 360 2.0 5.0 0.00 0.05 0.00 99 1012.2
20260904112519 63 360 3.0 5.0 0.00 0.05 0.00 99 1012.1
20260904112019 63 360 1.0 5.0 0.00 0.05 0.00 99 1012.2
20260904111536 63 360 2.0 5.0 0.00 0.05 0.00 99 1012.2
20260904111018 63 360 1.0 5.0 0.00 0.05 0.00 99 1012.3
20260904110516 63 0 1.0 5.0 0.00 0.05 0.00 99 1012.3
20260904110034 63 360 1.0 6.0 0.00 0.05 0.00 99 1012.2
20260904105519 63 0 1.0 8.0 0.00 0.06 0.00 99 1012.2
20260904105020 63 360 2.0 8.0 0.00 0.06 0.00 99 1012.2
20260904104536 63 360 3.0 6.0 0.00 0.06 0.00 99 1012.2
20260904104020 63 360 2.0 6.0 0.00 0.06 0.00 99 1012.2
20260904103519 63 360 1.0 5.0 0.00 0.06 0.00 99 1012.1
20260904103035 63 360 2.0 5.0 0.00 0.06 0.00 99 1012.1
20260904102518 63 360 2.0 8.0 0.00 0.06 0.00 99 1012.0
20260904102018 63 0 0.0 8.0 0.00 0.06 0.00 99 1011.9
20260904101536 63 360 1.0 6.0 0.00 0.06 0.00 99 1012.0
20260904101017 63 0 1.0 6.0 0.00 0.06 0.00 99 1012.0
20260904100517 63 360 2.0 6.0 0.00 0.06 0.00 99 1012.0
20260904100035 63 360 2.0 8.0 0.00 0.06 0.00 99 1012.0
20260904095518 63 360 2.0 9.0 0.00 0.07 0.00 99 1012.0
20260904095019 63 360 4.0 9.0 0.00 0.07 0.00 99 1012.0
20260904094541 63 0 3.0 9.0 0.00 0.07 0.00 99 1012.1
20260904094019 63 360 3.0 9.0 0.00 0.07 0.00 99 1012.1
20260904093517 63 360 2.0 6.0 0.00 0.07 0.00 99 1012.0
20260904093039 63 360 3.0 8.0 0.00 0.07 0.00 99 1012.0
20260904092520 63 360 2.0 8.0 0.00 0.07 0.00 99 1012.0
20260904092017 63 360 2.0 8.0 0.00 0.07 0.00 99 1012.0
20260904091536 63 360 2.0 8.0 0.00 0.07 0.00 99 1012.0
20260904091019 63 360 2.0 9.0 0.00 0.07 0.00 99 1012.1
20260904090520 63 360 2.0 9.0 0.00 0.07 0.00 99 1012.0
20260904090036 63 360 4.0 11.0 0.00 0.07 0.00 99 1012.1
20260904085518 63 360 3.0 11.0 0.00 0.20 0.00 99 1012.1
20260904085019 63 360 4.0 11.0 0.00 0.20 0.00 99 1012.1
20260904084537 63 360 4.0 9.0 0.00 0.20 0.00 99 1012.2
20260904084020 63 360 2.0 8.0 0.00 0.20 0.00 99 1012.2
20260904083518 63 360 2.0 8.0 0.00 0.20 0.00 99 1012.2
20260904083043 63 360 3.0 8.0 0.00 0.20 0.00 99 1012.2
20260904082519 63 360 2.0 9.0 0.00 0.20 0.00 99 1012.1
20260904082019 63 360 4.0 9.0 0.00 0.20 0.00 99 1012.0
20260904081534 63 360 3.0 8.0 0.00 0.20 0.00 99 1012.0
20260904081017 63 360 3.0 8.0 0.00 0.20 0.00 99 1011.9
20260904080518 63 360 2.0 6.0 0.00 0.20 0.00 99 1011.9
20260904080035 63 360 3.0 6.0 0.00 0.20 0.00 99 1011.9
20260904075517 63 360 2.0 8.0 0.00 0.20 0.00 99 1012.0
20260904075020 63 360 3.0 9.0 0.00 0.20 0.00 99 1012.0
20260904074536 63 360 3.0 9.0 0.00 0.20 0.00 99 1012.0
20260904074017 63 360 2.0 9.0 0.00 0.20 0.00 99 1012.0
20260904073518 63 360 2.0 10.0 0.00 0.20 0.00 99 1012.1
20260904073037 63 360 4.0 10.0 0.00 0.20 0.00 99 1012.2
20260904072517 63 360 4.0 9.0 0.00 0.20 0.00 99 1012.3
20260904072020 63 360 3.0 8.0 0.00 0.20 0.00 99 1012.4
20260904071534 63 360 3.0 8.0 0.00 0.20 0.00 99 1012.4
20260904071016 63 360 4.0 8.0 0.00 0.20 0.00 99 1012.5
20260904070520 63 360 4.0 8.0 0.00 0.20 0.00 99 1012.5
20260904070036 63 360 3.0 8.0 0.00 0.20 0.00 99 1012.6
20260904065520 63 360 3.0 8.0 0.00 0.20 0.00 99 1012.5
20260904065019 63 360 3.0 8.0 0.00 0.20 0.00 99 1012.5
20260904064538 63 360 4.0 9.0 0.00 0.20 0.00 99 1012.6
20260904064018 63 360 3.0 9.0 0.00 0.20 0.00 99 1012.6
20260904063517 63 360 3.0 8.0 0.00 0.20 0.00 99 1012.5
20260904063037 63 360 2.0 6.0 0.00 0.20 0.00 99 1012.5
20260904062517 63 360 3.0 6.0 0.00 0.20 0.00 99 1012.7
20260904062017 63 360 2.0 6.0 0.00 0.20 0.00 99 1012.8
20260904061539 63 360 3.0 6.0 0.00 0.20 0.00 99 1012.9
20260904061018 63 0 3.0 8.0 0.00 0.20 0.00 99 1013.1
20260904060518 63 360 3.0 8.0 0.00 0.20 0.00 99 1013.2
20260904060033 63 360 2.0 6.0 0.00 0.20 0.00 99 1013.2
20260904055520 63 360 3.0 6.0 0.00 0.20 0.00 99 1013.3
20260904055021 63 360 3.0 9.0 0.00 0.20 0.00 99 1013.3
20260904054535 63 360 3.0 9.0 0.00 0.20 0.00 99 1013.4
20260904054018 63 360 4.0 9.0 0.00 0.20 0.00 99 1013.4
20260904053518 63 360 3.0 8.0 0.00 0.20 0.00 99 1013.4
20260904053034 63 360 2.0 6.0 0.00 0.20 0.00 99 1013.4
20260904052522 63 360 3.0 6.0 0.00 0.20 0.00 99 1013.5
20260904052018 63 360 1.0 6.0 0.00 0.20 0.00 99 1013.6
20260904051534 63 360 2.0 6.0 0.00 0.20 0.00 99 1013.5
20260904051021 63 360 2.0 6.0 0.00 0.20 0.00 99 1013.5
20260904050521 63 360 2.0 6.0 0.00 0.20 0.00 99 1013.6
20260904050039 63 360 2.0 6.0 0.00 0.20 0.00 99 1013.7
20260904045520 63 360 1.0 5.0 0.00 0.20 0.00 99 1013.7
20260904045020 63 360 1.0 5.0 0.00 0.20 0.00 99 1013.7
20260904044537 63 0 1.0 5.0 0.00 0.20 0.00 99 1013.7
20260904044019 63 360 1.0 5.0 0.00 0.20 0.00 99 1013.8
20260904043518 63 360 2.0 4.0 0.00 0.20 0.00 99 1013.7
20260904043039 63 360 0.0 3.0 0.00 0.20 0.00 99 1013.9
20260904042519 63 0 0.0 4.0 0.00 0.20 0.00 99 1013.9
20260904042018 63 0 0.0 5.0 0.00 0.20 0.00 99 1014.0
20260904041535 63 360 2.0 5.0 0.00 0.20 0.00 99 1014.0
20260904041015 63 360 1.0 4.0 0.00 0.20 0.00 99 1013.9
20260904040521 63 360 1.0 4.0 0.00 0.20 0.00 99 1014.0
20260904040040 63 360 1.0 4.0 0.00 0.20 0.00 99 1014.0
20260904035521 63 0 1.0 4.0 0.00 0.20 0.20 99 1014.1
20260904035021 63 360 1.0 4.0 0.00 0.20 0.20 99 1014.3
20260904034543 63 0 0.0 3.0 0.00 0.20 0.20 99 1014.5
20260904034016 63 0 0.0 3.0 0.00 0.20 0.20 99 1014.6
20260904033519 63 360 0.0 2.0 0.00 0.20 0.20 99 1014.6
20260904033034 63 0 0.0 2.0 0.00 0.20 0.20 99 1014.7
20260904032516 63 0 0.0 2.0 0.00 0.20 0.20 99 1014.7
20260904032017 63 0 0.0 1.0 0.00 0.20 0.20 99 1014.5
20260904031537 63 0 0.0 1.0 0.00 0.20 0.20 99 1014.6
20260904031020 63 0 0.0 1.0 0.00 0.20 0.20 99 1014.5
20260904030521 63 0 0.0 1.0 0.00 0.20 0.20 99 1014.5
20260904030037 63 0 0.0 1.0 0.00 0.20 0.20 99 1014.4
20260904025518 63 0 0.0 1.0 0.00 0.20 0.20 99 1014.4
20260904025018 63 0 0.0 0.0 0.00 0.20 0.20 99 1014.5
20260904024540 63 0 0.0 0.0 0.00 0.20 0.20 99 1014.5
20260904024017 63 0 0.0 0.0 0.00 0.20 0.20 99 1014.5
20260904023520 63 0 0.0 0.0 0.00 0.20 0.20 99 1014.7
20260904023036 63 0 0.0 0.0 0.00 0.20 0.20 99 1014.8
20260904022518 63 0 0.0 0.0 0.00 0.20 0.20 99 1014.8
20260904022023 63 0 0.0 0.0 0.00 0.20 0.20 98 1014.9
20260904021538 63 0 0.0 0.0 0.00 0.20 0.20 98 1014.8
20260904021020 63 0 0.0 0.0 0.00 0.20 0.20 98 1014.9
20260904020518 63 0 0.0 0.0 0.00 0.20 0.20 98 1015.0
20260904020037 63 0 0.0 0.0 0.00 0.20 0.20 98 1014.9
20260904015523 63 0 0.0 0.0 0.00 0.20 0.20 98 1014.9
20260904015021 63 0 0.0 0.0 0.00 0.20 0.20 98 1015.0
20260904014543 63 0 0.0 0.0 0.00 0.20 0.20 98 1015.0
20260904014018 63 0 0.0 0.0 0.00 0.20 0.20 98 1015.0
20260904013517 63 0 0.0 0.0 0.00 0.20 0.20 98 1015.0
20260904013041 63 0 0.0 2.0 0.00 0.20 0.20 98 1015.1
20260904012517 63 0 0.0 2.0 0.00 0.20 0.20 98 1015.2
20260904012021 63 360 0.0 2.0 0.00 0.20 0.20 98 1015.1
20260904011541 63 0 0.0 3.0 0.00 0.20 0.20 98 1015.1
20260904011020 63 360 0.0 3.0 0.00 0.20 0.20 98 1015.1
20260904010520 63 360 0.0 4.0 0.00 0.20 0.20 98 1015.1
20260904010041 63 0 0.0 4.0 0.00 0.20 0.20 98 1015.1
20260904005523 63 0 0.0 3.0 0.00 0.20 0.20 98 1015.0
20260904005019 63 0 0.0 4.0 0.00 0.20 0.20 98 1015.0
20260904004543 63 0 0.0 4.0 0.00 0.20 0.20 98 1015.0
20260904004018 63 360 0.0 4.0 0.00 0.20 0.20 98 1014.8
20260904003518 63 0 0.0 2.0 0.00 0.20 0.20 98 1014.9
20260904003035 63 0 0.0 1.0 0.00 0.20 0.20 98 1014.7
20260904002519 63 0 0.0 3.0 0.00 0.20 0.20 98 1014.8
20260904002017 63 0 0.0 3.0 0.00 0.20 0.20 98 1014.7
20260904001536 63 0 1.0 4.0 0.00 0.20 0.20 98 1014.6
20260904001021 63 360 1.0 4.0 0.00 0.20 0.20 98 1014.5
20260904000520 63 360 1.0 5.0 0.00 0.20 0.20 98 1014.4
20260904000037 63 360 2.0 6.0 0.00 0.20 0.20 98 1014.3
20260903235520 63 360 1.0 6.0 0.00 0.20 0.20 98 1014.4
20260903235018 63 0 3.0 6.0 0.00 0.20 0.20 98 1014.2
20260903234535 63 360 2.0 5.0 0.00 0.20 0.20 98 1014.2
20260903234019 63 360 0.0 4.0 0.00 0.20 0.20 98 1014.5
20260903233521 63 0 0.0 5.0 0.00 0.20 0.20 98 1014.6
20260903233036 63 360 1.0 6.0 0.00 0.20 0.20 98 1014.4
20260903232518 63 0 0.0 6.0 0.00 0.20 0.20 98 1014.2
20260903232017 63 360 1.0 6.0 0.00 0.20 0.20 98 1014.3
20260903231536 63 0 1.0 4.0 0.00 0.20 0.20 98 1014.6
20260903231017 64 0 0.0 4.0 0.00 0.20 0.20 98 1014.8
20260903230521 64 360 0.0 4.0 0.00 0.20 0.20 98 1014.8
20260903230041 64 0 0.0 0.0 0.00 0.20 0.20 98 1014.9
20260903225518 64 0 0.0 0.0 0.00 0.20 0.20 98 1014.9
20260903225019 64 0 0.0 0.0 0.00 0.20 0.20 98 1014.9
20260903224551 64 0 0.0 0.0 0.00 0.20 0.20 98 1014.6
20260903224018 64 0 0.0 0.0 0.00 0.20 0.20 98 1014.5
20260903223517 64 0 0.0 0.0 0.00 0.20 0.20 98 1014.6
20260903223034 64 0 0.0 0.0 0.00 0.20 0.20 98 1014.9
20260903222520 64 0 0.0 0.0 0.00 0.20 0.20 98 1014.7
20260903222016 64 0 0.0 0.0 0.00 0.20 0.20 98 1014.8
20260903221536 64 0 0.0 0.0 0.00 0.20 0.20 98 1014.9
20260903221021 64 0 0.0 0.0 0.00 0.20 0.20 98 1014.9
20260903220518 64 0 0.0 0.0 0.00 0.20 0.20 97 1014.9
20260903220043 64 0 0.0 0.0 0.00 0.20 0.20 97 1014.9
20260903215521 64 0 0.0 0.0 0.00 0.20 0.20 97 1015.0
20260903215018 64 0 0.0 0.0 0.00 0.20 0.20 97 1014.9
20260903214540 64 0 0.0 0.0 0.00 0.20 0.20 98 1014.9
20260903214018 64 0 0.0 0.0 0.00 0.20 0.20 97 1014.9
20260903213517 64 0 0.0 0.0 0.00 0.20 0.20 97 1015.0
20260903213039 64 0 0.0 0.0 0.00 0.20 0.20 97 1015.0
20260903212521 65 0 0.0 0.0 0.00 0.20 0.20 97 1015.0
20260903212018 65 0 0.0 0.0 0.00 0.20 0.20 97 1015.0
20260903211541 65 0 0.0 0.0 0.00 0.20 0.20 97 1014.9
20260903211019 65 0 0.0 0.0 0.00 0.20 0.20 97 1014.9
20260903210521 65 0 0.0 0.0 0.00 0.20 0.20 97 1014.9
20260903210043 65 0 0.0 0.0 0.00 0.20 0.20 97 1014.8
20260903205520 65 0 0.0 0.0 0.00 0.20 0.20 97 1014.9
20260903205020 65 0 0.0 0.0 0.00 0.20 0.20 97 1014.9
20260903204546 65 0 0.0 0.0 0.00 0.20 0.20 98 1015.0
20260903204017 65 0 0.0 0.0 0.00 0.20 0.20 98 1015.0
20260903203517 65 0 0.0 0.0 0.00 0.20 0.20 98 1015.0
20260903203036 65 0 0.0 0.0 0.00 0.20 0.20 98 1015.1
20260903202520 64 0 0.0 1.0 0.00 0.20 0.20 98 1015.0
20260903202020 64 0 0.0 3.0 0.00 0.20 0.20 98 1015.1
20260903201543 64 0 0.0 3.0 0.00 0.20 0.20 98 1015.1
20260903201019 64 0 0.0 2.0 0.00 0.20 0.20 98 1015.0
20260903200517 64 360 0.0 2.0 0.00 0.20 0.20 98 1015.1
20260903200034 64 0 0.0 2.0 0.00 0.20 0.20 98 1015.1
20260903195517 64 0 0.0 3.0 0.00 0.20 0.20 98 1015.2
20260903195016 64 0 0.0 3.0 0.00 0.20 0.20 98 1015.3
20260903194536 64 360 0.0 3.0 0.00 0.20 0.20 98 1015.3
20260903194020 64 0 0.0 1.0 0.00 0.20 0.20 98 1015.2
20260903193519 64 0 0.0 1.0 0.00 0.20 0.20 98 1015.3
20260903193038 64 0 0.0 1.0 0.00 0.20 0.20 98 1015.3
20260903192516 64 0 0.0 2.0 0.00 0.20 0.20 98 1015.4
20260903192017 64 0 0.0 3.0 0.00 0.20 0.20 98 1015.4
20260903191540 64 0 0.0 4.0 0.00 0.20 0.20 98 1015.4
20260903191018 64 0 0.0 4.0 0.00 0.20 0.20 98 1015.5
20260903190518 64 360 1.0 4.0 0.00 0.20 0.20 98 1015.5
20260903190035 64 0 0.0 2.0 0.00 0.20 0.20 98 1015.6
20260903185520 64 0 0.0 0.0 0.00 0.20 0.20 98 1015.7
20260903185019 64 0 0.0 0.0 0.00 0.20 0.20 98 1015.7
20260903184538 64 0 0.0 0.0 0.00 0.20 0.20 98 1015.8
20260903184021 64 0 0.0 2.0 0.00 0.20 0.20 98 1015.8
20260903183521 64 0 0.0 2.0 0.00 0.20 0.20 98 1015.9
20260903183036 63 360 0.0 0.0 0.00 0.20 0.20 98 1015.8